This is the latest recevied weather packets stored in our database for station/object BV1EV-2. If no packets are shown the sender has not sent any weather packets the latest 10 day(s).
| Time | Temp. | Humidity | Pressure | Rain* | Wind** | Luminosity | Snow |
|---|---|---|---|---|---|---|---|
| 1777484268 | 28.89° C | 41% | 1012.2 hPa | - | - | - | - |
| 1777483068 | 28.33° C | 51% | 1011.9 hPa | - | - | - | - |
| 1777481867 | 28.33° C | 45% | 1012.3 hPa | - | - | - | - |
| 1777480668 | 28.33° C | 41% | 1012.5 hPa | - | - | - | - |
| 1777479468 | 28.33° C | 42% | 1012.6 hPa | - | - | - | - |
| 1777477067 | 29.44° C | 47% | 1012.7 hPa | - | - | - | - |
| 1777475867 | 29.44° C | 47% | 1012.6 hPa | - | - | - | - |
| 1777474667 | 28.89° C | 49% | 1012.5 hPa | - | - | - | - |
| 1777472268 | 28.33° C | 41% | 1012.4 hPa | - | - | - | - |
| 1777471068 | 28.33° C | 41% | 1012.3 hPa | - | - | - | - |
| 1777469867 | 28.33° C | 41% | 1012.1 hPa | - | - | - | - |
| 1777468667 | 28.89° C | 41% | 1011.8 hPa | - | - | - | - |
| 1777467467 | 28.89° C | 42% | 1012 hPa | - | - | - | - |
| 1777466268 | 29.44° C | 47% | 1012 hPa | - | - | - | - |
| 1777465068 | 29.44° C | 47% | 1011.6 hPa | - | - | - | - |
| 1777463868 | 29.44° C | 47% | 1011.4 hPa | - | - | - | - |
| 1777462668 | 29.44° C | 47% | 1011.3 hPa | - | - | - | - |
| 1777461467 | 29.44° C | 46% | 1010.6 hPa | - | - | - | - |
| 1777460267 | 29.44° C | 45% | 1009.9 hPa | - | - | - | - |
| 1777459067 | 30° C | 46% | 1009.5 hPa | - | - | - | - |
| 1777457867 | 30° C | 47% | 1009.4 hPa | - | - | - | - |
| 1777456667 | 30° C | 48% | 1008.8 hPa | - | - | - | - |
| 1777455467 | 30° C | 49% | 1008.3 hPa | - | - | - | - |
| 1777454268 | 30° C | 49% | 1008.1 hPa | - | - | - | - |
| 1777453067 | 29.44° C | 49% | 1008.1 hPa | - | - | - | - |
* Rain since midnight (hover to see other rain measurements)
** Current wind speed in m/s (hover to see current wind gust speed)